[[{"header":{"parameterUnit":"m.s-1","parameterCategory":1,"la1":30.2991,"la2":30.254,"lo1":-89.0895,"lo2":-89.0444,"dy":0.0017,"dx":0.0017,"nx":28,"ny":28,"refTime":"2023-11-07T03:00:00:Z","depth":0,"parameterNumber":2,"parameterNumberName":"U-component_of_WINDS"},"data":[0,0,0,0,0,0,0,0,0,0,0,0,0,0,0,0,0,0,0,0,0,0,0,0,0,0,0,0,0,0,0,0,0,0,0,0,0,0,0,0,0,0,0,0,0,0,0,0,0,0,0,0,0,0,0,0,0,0,-0.3659,-0.3658,0,-0.3633,-0.3633,-0.3633,-0.362,-0.362,-0.362,-0.3619,-0.3595,-0.3594,-0.3593,0,0,0,0,0,0,0,0,0,0,0,0,0,-0.3696,-0.3695,-0.3659,-0.3658,-0.3658,-0.3633,-0.3633,-0.3633,-0.362,-0.362,-0.362,-0.3619,-0.3595,-0.3594,-0.3593,0,0,0,0,0,0,0,0,0,0,0,0,0,-0.3676,-0.3695,-0.3659,-0.3648,-0.3647,-0.3633,-0.3633,-0.3633,-0.362,-0.362,-0.362,-0.3619,-0.3595,-0.3594,-0.3593,-0.3588,0,0,-0.359,-0.359,0,0,0,0,0,0,0,0,-0.3677,-0.3675,-0.365,-0.3649,-0.3648,-0.363,-0.3637,-0.3618,-0.362,-0.363,-0.3619,-0.3619,-0.3606,-0.3604,-0.36,-0.3587,-0.3586,-0.359,-0.359,-0.3589,-0.3589,0,0,0,0,0,0,0,-0.3679,-0.3676,-0.3649,-0.365,-0.3648,-0.3645,-0.3642,-0.3633,-0.3619,-0.3629,-0.3628,-0.3625,-0.3606,-0.3601,-0.3599,-0.3585,-0.359,-0.3589,-0.3589,-0.3588,-0.3566,-0.3566,0,0,0,0,0,0,-0.3682,-0.3677,-0.3649,-0.3648,-0.3663,-0.3645,-0.3641,-0.3635,-0.3619,-0.3616,-0.3625,-0.3625,-0.3602,-0.36,-0.3598,-0.3591,-0.3589,-0.3588,-0.3588,-0.3566,-0.3566,-0.3566,0,0,0,0,0,0,-0.3683,-0.3679,-0.365,-0.3662,-0.3658,-0.3644,-0.3637,-0.3635,-0.363,-0.3616,-0.3613,-0.3623,-0.3602,-0.36,-0.359,-0.359,-0.3588,-0.3587,-0.3566,-0.3566,-0.3566,-0.3576,0,0,0,0,0,0,-0.3684,-0.368,-0.3677,-0.3662,-0.3658,-0.3643,-0.3637,-0.3634,-0.3628,-0.3627,-0.3613,-0.3611,-0.3602,-0.3592,-0.3589,-0.3588,-0.3586,-0.3566,-0.3566,-0.3566,-0.3576,-0.3576,-0.3577,0,0,0,0,0,-0.3685,-0.3681,-0.3677,-0.3674,-0.3654,-0.3643,-0.364,-0.363,-0.3628,-0.3626,-0.3617,-0.3611,-0.359,-0.3591,-0.3588,-0.3587,-0.3566,-0.3566,-0.3566,-0.3575,-0.3576,-0.3577,0,0,0,0,0,0,-0.3697,-0.3679,-0.3675,-0.3666,-0.3656,-0.3641,-0.3637,-0.3632,-0.3622,-0.3622,-0.361,-0.3607,-0.3599,-0.3592,-0.3593,-0.3581,-0.3578,-0.3577,-0.3585,-0.3586,-0.3587,-0.3588,-0.3585,0,0,0,0,0,-0.3699,-0.3691,-0.3675,-0.3669,-0.3664,-0.3652,-0.3646,-0.364,-0.3629,-0.3625,-0.3615,-0.3605,-0.3596,-0.3591,-0.3582,-0.3575,-0.3571,-0.3572,-0.3573,-0.3573,-0.3573,-0.3568,-0.3568,-0.3566,-0.3566,-0.3566,0,0,-0.3702,-0.3691,-0.3687,-0.3671,-0.3663,-0.3655,-0.3648,-0.364,-0.3634,-0.3624,-0.3614,-0.3607,-0.3595,-0.3587,-0.3583,-0.3581,-0.3573,-0.3573,-0.3574,-0.3573,-0.3568,-0.3568,-0.3569,-0.3566,-0.3566,-0.3566,0,0,-0.3704,-0.3695,-0.3689,-0.368,-0.3667,-0.3659,-0.3657,-0.3643,-0.3637,-0.3628,-0.362,-0.3612,-0.3598,-0.3589,-0.3583,-0.3582,-0.3576,-0.358,-0.3583,-0.3578,-0.3578,-0.3578,-0.3578,-0.3578,-0.3579,-0.3579,-0.3579,0,-0.371,-0.3697,-0.3686,-0.3678,-0.3672,-0.3661,-0.3655,-0.3647,-0.3633,-0.3628,-0.3626,-0.3607,-0.3599,-0.3588,-0.3588,-0.3583,-0.3581,-0.3581,-0.3579,-0.3579,-0.3579,-0.3578,-0.3578,-0.358,-0.358,-0.358,-0.358,0,-0.3705,-0.3696,-0.3693,-0.3678,-0.3671,-0.3664,-0.3652,-0.3646,-0.364,-0.3632,-0.3622,-0.3612,-0.36,-0.3597,-0.3591,-0.3586,-0.3585,-0.3581,-0.3578,-0.358,-0.3579,-0.3578,-0.358,-0.358,-0.358,-0.358,0,0,-0.3714,-0.3693,-0.3692,-0.3685,-0.367,-0.3663,-0.3656,-0.3644,-0.3639,-0.3629,-0.3623,-0.361,-0.3607,-0.36,-0.3593,-0.3589,-0.3588,-0.3586,-0.3585,-0.3586,-0.3581,-0.3584,-0.3584,-0.3584,-0.3584,-0.3584,-0.3582,0,-0.3714,-0.3699,-0.3689,-0.3679,-0.367,-0.366,-0.3654,-0.3644,-0.3636,-0.3628,-0.362,-0.3611,-0.3607,-0.3603,-0.3598,-0.3589,-0.3587,-0.3589,-0.3578,-0.3578,-0.3581,-0.3584,-0.3586,-0.3585,-0.3582,-0.3582,-0.3582,0,-0.3711,-0.3701,-0.369,-0.3675,-0.3671,-0.3666,-0.3654,-0.3647,-0.3635,-0.363,-0.3622,-0.3615,-0.3607,-0.3604,-0.3593,-0.3594,-0.3589,-0.3584,-0.3584,-0.3582,-0.358,-0.3582,-0.3584,-0.3584,-0.3581,-0.3581,-0.3581,0,-0.3719,-0.3702,-0.3693,-0.3687,-0.367,-0.3667,-0.3659,-0.3648,-0.3642,-0.3632,-0.3627,-0.3617,-0.3611,-0.3603,-0.3593,-0.3593,-0.3583,-0.358,-0.3578,-0.3579,-0.3577,-0.3577,-0.3578,-0.3574,-0.3574,-0.3574,-0.3574,0,-0.3719,-0.3712,-0.3696,-0.369,-0.3683,-0.3671,-0.3664,-0.3656,-0.3646,-0.3639,-0.363,-0.3623,-0.3611,-0.3603,-0.3595,-0.3587,-0.3584,-0.358,-0.3578,-0.358,-0.3581,-0.3577,-0.3577,-0.3574,-0.3574,-0.3574,-0.3574,0,-0.3726,-0.3715,-0.3704,-0.3689,-0.3685,-0.368,-0.3666,-0.3661,-0.3652,-0.3644,-0.3641,-0.3628,-0.3618,-0.3607,-0.3594,-0.3589,-0.3581,-0.3578,-0.3584,-0.3583,-0.3582,-0.3582,-0.3581,-0.358,-0.3576,-0.3576,-0.3576,0,-0.3727,-0.3721,-0.3705,-0.37,-0.3692,-0.3684,-0.3677,-0.3665,-0.3659,-0.3645,-0.3641,-0.3631,-0.3622,-0.3607,-0.3596,-0.3586,-0.3583,-0.3583,-0.3581,-0.3584,-0.3582,-0.3583,-0.3582,-0.3583,-0.3584,-0.3584,-0.3584,0,-0.373,-0.3724,-0.3715,-0.3703,-0.3696,-0.3686,-0.3676,-0.3672,-0.3659,-0.3652,-0.3642,-0.3635,-0.3621,-0.361,-0.3599,-0.3592,-0.3586,-0.3584,-0.3583,-0.3586,-0.359,-0.3587,-0.3586,-0.3584,-0.3584,-0.3584,-0.3584,-0.3584,-0.3733,-0.3728,-0.3716,-0.3705,-0.3697,-0.3688,-0.3681,-0.3672,-0.3663,-0.3651,-0.3645,-0.3634,-0.3623,-0.3607,-0.36,-0.3592,-0.359,-0.3588,-0.3588,-0.3588,-0.3588,-0.3591,-0.359,-0.359,-0.3589,-0.3589,-0.3589,0,-0.3736,-0.3727,-0.3718,-0.3704,-0.3696,-0.369,-0.3679,-0.3673,-0.3664,-0.3654,-0.3645,-0.3633,-0.3622,-0.3611,-0.36,-0.3596,-0.3593,-0.3594,-0.3594,-0.3592,-0.3591,-0.3593,-0.3596,-0.3596,-0.3596,-0.3596,-0.3596,-0.3596,-0.3736,-0.3726,-0.3719,-0.3705,-0.3697,-0.3686,-0.368,-0.3672,-0.3664,-0.3651,-0.3642,-0.3635,-0.3624,-0.3612,-0.3603,-0.36,-0.3596,-0.3598,-0.3594,-0.3593,-0.3592,-0.3592,-0.3593,-0.3597,-0.3597,-0.3595,-0.3595,-0.3595]},{"header":{"parameterUnit":"m.s-1","parameterCategory":1,"la1":30.2991,"la2":30.254,"lo1":-89.0895,"lo2":-89.0444,"dy":0.0017,"dx":0.0017,"nx":28,"ny":28,"refTime":"2023-11-07T03:00:00:Z","depth":0,"parameterNumber":3,"parameterNumberName":"V-component_of_WINDS"},"data":[0,0,0,0,0,0,0,0,0,0,0,0,0,0,0,0,0,0,0,0,0,0,0,0,0,0,0,0,0,0,0,0,0,0,0,0,0,0,0,0,0,0,0,0,0,0,0,0,0,0,0,0,0,0,0,0,0,0,-0.0421,-0.0422,0,-0.0469,-0.047,-0.047,-0.0504,-0.0504,-0.0505,-0.0505,-0.0555,-0.0556,-0.0557,0,0,0,0,0,0,0,0,0,0,0,0,0,-0.0362,-0.0363,-0.0421,-0.0422,-0.0423,-0.0469,-0.047,-0.047,-0.0504,-0.0504,-0.0505,-0.0505,-0.0555,-0.0556,-0.0557,0,0,0,0,0,0,0,0,0,0,0,0,0,-0.0396,-0.0363,-0.0421,-0.0445,-0.0448,-0.0469,-0.047,-0.047,-0.0504,-0.0504,-0.0505,-0.0505,-0.0554,-0.0556,-0.0557,-0.0559,0,0,-0.0562,-0.0563,0,0,0,0,0,0,0,0,-0.0394,-0.0399,-0.0441,-0.0443,-0.0446,-0.0481,-0.0467,-0.05,-0.0504,-0.0483,-0.0505,-0.0505,-0.053,-0.0534,-0.0542,-0.0562,-0.0564,-0.0562,-0.0563,-0.0564,-0.0565,0,0,0,0,0,0,0,-0.0392,-0.0397,-0.044,-0.0441,-0.0445,-0.0454,-0.0459,-0.0473,-0.0504,-0.0484,-0.0487,-0.0492,-0.0532,-0.054,-0.0543,-0.0564,-0.0562,-0.0564,-0.0565,-0.0565,-0.0589,-0.0589,0,0,0,0,0,0,-0.0386,-0.0394,-0.0439,-0.0442,-0.0421,-0.0455,-0.0461,-0.047,-0.0503,-0.0509,-0.0492,-0.0494,-0.0537,-0.0541,-0.0545,-0.055,-0.0564,-0.0566,-0.0566,-0.059,-0.0589,-0.0589,0,0,0,0,0,0,-0.0384,-0.0389,-0.0437,-0.0419,-0.0426,-0.0455,-0.0465,-0.047,-0.0479,-0.0509,-0.0515,-0.0495,-0.0538,-0.0543,-0.0556,-0.0552,-0.0566,-0.0568,-0.059,-0.0589,-0.0589,-0.0559,0,0,0,0,0,0,-0.0382,-0.0388,-0.0389,-0.0419,-0.0426,-0.0446,-0.0465,-0.0471,-0.0481,-0.0484,-0.0513,-0.0518,-0.0538,-0.0553,-0.0557,-0.0555,-0.0569,-0.059,-0.059,-0.0589,-0.0561,-0.0558,-0.0555,0,0,0,0,0,-0.038,-0.0379,-0.0389,-0.0394,-0.0427,-0.0445,-0.045,-0.0473,-0.0481,-0.0482,-0.0502,-0.0518,-0.0552,-0.0554,-0.0559,-0.0557,-0.0591,-0.059,-0.0589,-0.0562,-0.0558,-0.0555,0,0,0,0,0,0,-0.0348,-0.0383,-0.0394,-0.0402,-0.0421,-0.0451,-0.0453,-0.0468,-0.0484,-0.0486,-0.0514,-0.0521,-0.0531,-0.0545,-0.0547,-0.0561,-0.0573,-0.0574,-0.0551,-0.0548,-0.0545,-0.0541,-0.057,0,0,0,0,0,-0.0342,-0.0353,-0.0383,-0.0387,-0.0396,-0.0423,-0.0432,-0.0447,-0.0468,-0.0476,-0.0496,-0.0515,-0.0531,-0.054,-0.0556,-0.0563,-0.057,-0.0564,-0.0562,-0.0559,-0.0559,-0.0565,-0.0562,-0.0586,-0.0586,-0.0586,0,0,-0.0329,-0.035,-0.0355,-0.0381,-0.0397,-0.0409,-0.0429,-0.044,-0.0449,-0.0477,-0.0491,-0.0506,-0.053,-0.054,-0.0546,-0.0553,-0.0554,-0.0558,-0.0556,-0.0557,-0.0564,-0.0561,-0.0559,-0.0586,-0.0586,-0.0586,0,0,-0.0312,-0.0328,-0.0334,-0.035,-0.0374,-0.0392,-0.0393,-0.0422,-0.0433,-0.0447,-0.0468,-0.048,-0.0506,-0.0522,-0.0533,-0.0524,-0.0539,-0.0528,-0.0514,-0.0519,-0.0517,-0.0515,-0.0512,-0.0511,-0.0528,-0.0528,-0.0528,0,-0.0293,-0.0311,-0.0335,-0.0345,-0.0356,-0.0382,-0.0389,-0.0403,-0.0431,-0.0439,-0.0446,-0.0479,-0.0497,-0.0512,-0.0509,-0.0518,-0.0521,-0.0524,-0.0515,-0.0514,-0.0513,-0.051,-0.0509,-0.0526,-0.0526,-0.0526,-0.0527,0,-0.0287,-0.0299,-0.03,-0.0326,-0.0338,-0.0346,-0.0373,-0.0382,-0.0397,-0.0415,-0.0429,-0.0451,-0.0472,-0.0477,-0.0492,-0.0494,-0.0498,-0.051,-0.0523,-0.0509,-0.0506,-0.0506,-0.0524,-0.0525,-0.0525,-0.0525,0,0,-0.0249,-0.0289,-0.029,-0.0302,-0.0331,-0.0341,-0.0351,-0.0371,-0.0379,-0.0398,-0.0407,-0.0429,-0.0441,-0.0454,-0.0471,-0.0476,-0.0467,-0.0487,-0.0488,-0.0483,-0.0471,-0.0461,-0.0459,-0.0478,-0.0478,-0.0478,-0.0469,0,-0.0236,-0.0254,-0.0277,-0.0288,-0.03,-0.0325,-0.0334,-0.0353,-0.0371,-0.0384,-0.0403,-0.0418,-0.0432,-0.044,-0.0446,-0.0467,-0.0465,-0.0468,-0.0487,-0.0487,-0.048,-0.0458,-0.0448,-0.0438,-0.0468,-0.0468,-0.0468,0,-0.0223,-0.024,-0.0252,-0.0281,-0.0287,-0.0294,-0.0315,-0.0327,-0.035,-0.0362,-0.0377,-0.0396,-0.0409,-0.0421,-0.0439,-0.044,-0.045,-0.0461,-0.0462,-0.0464,-0.0476,-0.046,-0.0436,-0.0434,-0.0467,-0.0467,-0.0467,0,-0.0194,-0.0221,-0.0231,-0.0241,-0.0275,-0.028,-0.0294,-0.0318,-0.0329,-0.0347,-0.0355,-0.0375,-0.0386,-0.0401,-0.0426,-0.0432,-0.0441,-0.0455,-0.0452,-0.0452,-0.0452,-0.0452,-0.0429,-0.0459,-0.0459,-0.0459,-0.0459,0,-0.0177,-0.0183,-0.0219,-0.0225,-0.0234,-0.026,-0.0268,-0.0285,-0.0306,-0.0316,-0.0341,-0.035,-0.0382,-0.0396,-0.0415,-0.0427,-0.0432,-0.0443,-0.0448,-0.044,-0.0439,-0.0446,-0.0447,-0.0459,-0.0459,-0.0459,-0.0459,0,-0.0146,-0.017,-0.0183,-0.0214,-0.0223,-0.0227,-0.0254,-0.0262,-0.0281,-0.0295,-0.0299,-0.0329,-0.0347,-0.0373,-0.0398,-0.0412,-0.0421,-0.0429,-0.0413,-0.0416,-0.0411,-0.0411,-0.0392,-0.0391,-0.0422,-0.0421,-0.0421,0,-0.0133,-0.0138,-0.017,-0.0179,-0.0192,-0.0206,-0.0218,-0.0245,-0.0256,-0.0283,-0.0288,-0.0307,-0.0324,-0.0351,-0.0376,-0.0396,-0.0405,-0.0397,-0.0408,-0.04,-0.0404,-0.0403,-0.0404,-0.0394,-0.0393,-0.0393,-0.0393,0,-0.0107,-0.0119,-0.0134,-0.0154,-0.0167,-0.0184,-0.0202,-0.0208,-0.024,-0.0251,-0.027,-0.0283,-0.0309,-0.0328,-0.0352,-0.0368,-0.0385,-0.0389,-0.039,-0.0382,-0.0372,-0.0377,-0.0405,-0.0389,-0.039,-0.039,-0.039,-0.039,-0.0084,-0.009,-0.0114,-0.0131,-0.0147,-0.0164,-0.0173,-0.0193,-0.0209,-0.0232,-0.0248,-0.0265,-0.0289,-0.0322,-0.0338,-0.0352,-0.036,-0.036,-0.036,-0.036,-0.0357,-0.037,-0.0357,-0.0357,-0.0357,-0.0357,-0.0357,0,-0.006,-0.0076,-0.0091,-0.0116,-0.0129,-0.0145,-0.0167,-0.0177,-0.0192,-0.0212,-0.0229,-0.025,-0.0269,-0.0296,-0.0317,-0.0324,-0.0332,-0.0328,-0.0328,-0.0331,-0.0349,-0.0347,-0.0321,-0.0321,-0.0321,-0.0321,-0.0321,-0.0321,-0.0048,-0.006,-0.0075,-0.0095,-0.0112,-0.0129,-0.014,-0.0156,-0.0172,-0.0195,-0.0211,-0.0228,-0.0252,-0.0275,-0.0294,-0.0301,-0.0308,-0.0301,-0.0311,-0.0327,-0.033,-0.0333,-0.0331,-0.0302,-0.0302,-0.0292,-0.0291,-0.0291]}]]